Regional Weather Roundup
Issued by NWS Cleveland, OH

Home | Current Version | Previous Version | Graphics & Text | Print | Product List | Glossary On
Versions: 1 2 3 4 5 6 7 8 9 10 11 12 13 14 15 16 17 18 19 20 21 22 23 24 25 26 27 28 29 30 31 32 33 34 35 36 37 38 39 40 41 42 43 44 45 46 47 48 49 50
000
ASUS41 KCLE 171812
RWRCLE
OHIO REGIONAL WEATHER ROUNDUP
NATIONAL WEATHER SERVICE WILMINGTON, OH
200 PM EDT TUE OCT 17 2017

NOTE: "FAIR" INDICATES FEW OR NO CLOUDS BELOW 12,000 FEET WITH NO
SIGNIFICANT WEATHER AND/OR OBSTRUCTIONS TO VISIBILITY.

OHZ001>008-015>018-024>027-034-035-043-044-171900-
   NORTHWEST OHIO

CITY           SKY/WX    TMP DP  RH WIND       PRES   REMARKS
DEFIANCE       FAIR      65  38  36 SW15G21   30.24F
FINDLAY        FAIR      67  39  35 SW15G21   30.25F
TOLEDO EXPRESS FAIR      67  42  40 SW21G32   30.22F
TOLEDO EXEC    FAIR      66  41  40 SW16G24   30.23F
LIMA           FAIR      65  40  39 W14G22    30.27F HAZE
$$

OHZ009>014-019>023-028>033-038-089-171900-
   NORTHEAST OHIO

CITY           SKY/WX    TMP DP  RH WIND       PRES   REMARKS
CLE-HOPKINS    FAIR      66  39  37 SW14G28   30.27F
CLE-LAKEFRONT  FAIR      66  39  37 SW17      30.24F
CUY CO. ARPT   SUNNY     66  39  37 W16       30.25F
LORAIN-ELYRIA  FAIR      65  36  34 W13       30.25F
ASHTABULA      FAIR      63  39  41 W9        30.25F
AKRON-CANTON   FAIR      63  38  39 SW14      30.28F
WOOSTER        FAIR      64  37  36 SW10G21   30.28F
MANSFIELD      FAIR      63  39  41 SW12G24   30.28F
YOUNGSTOWN     FAIR      62  39  42 SW13G22   30.27F
$$

OHZ042-051>053-060>062-070>072-077>081-171900-
  SOUTHWEST OHIO

CITY           SKY/WX    TMP DP  RH WIND       PRES   REMARKS
CINC-COVINGTON FAIR      62  40  44 S9G18     30.32F
CINC-LUNKEN    FAIR      64  43  46 S12       30.33F
HAMILTON       FAIR      67  41  38 VRB6      30.32F
DAYTON         FAIR      63  42  46 S15       30.31F
WRIGHT-PAT AFB FAIR      64  36  35 SW13G18   30.30F
DAYTON GENERAL FAIR      63  39  41 SW7       30.31F
WILMINGTON     FAIR      63  41  44 W13       30.31F
$$

OHZ036-037-039>041-045>050-054>059-063>069-073>076-082>088-171900-
  CENTRAL AND SOUTHEAST OHIO

CITY           SKY/WX    TMP DP  RH WIND       PRES   REMARKS
COLUMBUS       FAIR      64  38  38 SW13      30.30F
OSU AIRPORT    FAIR      64  41  42 S10       30.30F
BOLTON FIELD   SUNNY     63  39  42 S13       30.31F
RICKENBACK AFB FAIR      63  39  41 SW8       30.30F
NEWARK         FAIR      64  36  35 SW9       30.30F
MARION         FAIR      64  36  35 W16       30.29F
LANCASTER      FAIR      62  40  44 SW12      30.32F
ZANESVILLE     FAIR      63  38  39 W6        30.31F
NEW PHILLY     FAIR      64  38  38 W8        30.31F
$$



USA.gov is the U.S. government's official web portal to all federal, state and local government web resources and services.